Satellite-Ground Cal/Val Site Overpasses Predictions

Prediction of Satellite NPP Overpassing Cal/Val Site: Antarctic Dome C

Ground Cal/Val Site Location: Latitude: -75.10, Longitude: 123.35; Satellite-Ground Site NADIR distance within 100 km.

Table of predicted overpasses for the next 14.0 days since TLE Epoch: 8/14/2021
Interval Starting Time Ending Time Minimum Distance Time Minimum Distance (km)
1 08/14/2021 15:08:12 08/14/2021 15:08:13 08/14/2021 15:08:13 99.79
2 08/15/2021 14:49:08 08/15/2021 14:49:37 08/15/2021 14:49:23 11.68
3 08/17/2021 07:32:00 08/17/2021 07:32:29 08/17/2021 07:32:14 1.94
4 08/20/2021 14:55:28 08/20/2021 14:55:57 08/20/2021 14:55:42 25.18
5 08/21/2021 14:36:46 08/21/2021 14:37:02 08/21/2021 14:36:54 82.04
6 08/22/2021 07:38:19 08/22/2021 07:38:46 08/22/2021 07:38:33 37.55
7 08/23/2021 07:19:34 08/23/2021 07:19:54 08/23/2021 07:19:44 72.31
8 08/25/2021 15:01:51 08/25/2021 15:02:13 08/25/2021 15:02:02 62.33
9 08/26/2021 14:43:00 08/26/2021 14:43:25 08/26/2021 14:43:12 47.01
